Regional Weather Roundup
Issued by NWS

Home | Current Version | Previous Version | Graphics & Text | Print | Product List | Glossary On
Versions: 1 2 3 4 5 6 7 8 9 10 11 12 13 14 15 16 17 18 19 20 21 22 23 24 25 26 27 28 29 30 31 32 33 34 35 36 37 38 39 40 41 42 43 44 45 46 47 48 49 50
000
ASUS43 KBIS 260410
RWRND

NORTH DAKOTA REGIONAL WEATHER ROUNDUP
NATIONAL WEATHER SERVICE BISMARCK ND
1000 PM CST SUN JAN 25 2015

NOTE: "FAIR" INDICATES FEW OR NO CLOUDS BELOW 12,000 FEET WITH NO
SIGNIFICANT WEATHER AND/OR OBSTRUCTIONS TO VISIBILITY.


NDZ001>003-009>011-017-260500-
NORTHWEST NORTH DAKOTA

CITY           SKY/WX    TMP DP  RH WIND       PRES   REMARKS
WILLISTON      MOCLDY    43  35  73 W14       29.79F
MINOT          PTCLDY    40  32  73 SW21G28   29.68F
MINOT AFB      PTCLDY    37  37  99 W17       29.67F
$$

NDZ018>021-031>035-040>046-260500-
SOUTHWEST NORTH DAKOTA

CITY           SKY/WX    TMP DP  RH WIND       PRES   REMARKS
BISMARCK       CLOUDY    37  31  78 W5        29.79F
DICKINSON      MOCLDY    42  34  73 W17       29.81R
GARRISON         N/A     36  32  85 W9        29.74S
HETTINGER ARPT CLOUDY    42  34  73 W12       29.86F
$$

NDZ004>008-012>016-024-026-027-054-260500-
NORTHEAST NORTH DAKOTA

CITY           SKY/WX    TMP DP  RH WIND       PRES   REMARKS
GRAND FORKS    CLOUDY    27  22  81 S15       29.78F WCI  15
GRND FRKS AFB  CLOUDY    29  25  86 S14       29.75F WCI  18
DEVILS LAKE    CLOUDY    32  30  93 SW15G21   29.69F
$$

NDZ022-023-025-028>030-036>039-047>053-260500-
SOUTHEAST NORTH DAKOTA

CITY           SKY/WX    TMP DP  RH WIND       PRES   REMARKS
FARGO          CLOUDY    28  21  75 S16       29.85F WCI  16
JAMESTOWN      CLOUDY    30  28  92 S10       29.75F
$$



USA.gov is the U.S. government's official web portal to all federal, state and local government web resources and services.